Location: Marcé
(47.5801°N, 0.3280°W)
Time: 03:12:41
(UTC+01:00)

Courier 1B - Pass Details

Date: 02 December 2021
Orbit: 962 x 1209 km, 28.3° (Epoch: 26 January)

Event Time Altitude Azimuth Distance (km) Brightness Sun altitude
Rises 22:00:49 0° 243° (WSW) 3,822 11.0 -47.6°
Enters shadow 22:02:53 - 233° (SW) 3,344 10.5 -47.9°
Maximum altitude 22:07:36 10° 197° (SSW) 2,781 - -48.6°
Drops below altitude 10° 22:07:43 10° 196° (SSW) 2,780 - -48.6°
Sets 22:14:11 0° 150° (SSE) 3,663 - -49.6°
